TimeMST,TemperatureF,Dew PointF,Humidity,Sea Level PressureIn,VisibilityMPH,Wind Direction,Wind SpeedMPH,Gust SpeedMPH,PrecipitationIn,Events,Conditions,WindDirDegrees,DateUTC
12:55 AM,16.0,7.0,68,30.23,10.0,Variable,4.6,-,N/A,,Clear,0,2013-11-06 07:55:00
1:55 AM,14.0,6.1,71,30.24,10.0,Variable,3.5,-,N/A,,Clear,0,2013-11-06 08:55:00
2:55 AM,9.0,5.0,84,30.27,10.0,ESE,6.9,-,N/A,,Clear,110,2013-11-06 09:55:00
3:55 AM,7.0,3.9,87,30.28,10.0,Variable,4.6,-,N/A,,Clear,0,2013-11-06 10:55:00
4:55 AM,7.0,3.0,84,30.31,10.0,Calm,Calm,-,N/A,,Clear,0,2013-11-06 11:55:00
5:55 AM,8.1,3.9,83,30.32,10.0,SSW,3.5,-,N/A,,Clear,200,2013-11-06 12:55:00
6:55 AM,12.0,7.0,80,30.34,10.0,Variable,3.5,-,N/A,,Clear,0,2013-11-06 13:55:00
7:55 AM,23.0,14.0,68,30.33,10.0,SE,6.9,-,N/A,,Clear,140,2013-11-06 14:55:00
8:55 AM,33.1,12.0,42,30.30,10.0,Variable,5.8,-,N/A,,Clear,0,2013-11-06 15:55:00
9:55 AM,43.0,14.0,31,30.29,10.0,Variable,6.9,-,N/A,,Mostly Cloudy,0,2013-11-06 16:55:00
10:55 AM,46.9,10.9,23,30.25,10.0,Variable,3.5,-,N/A,,Clear,0,2013-11-06 17:55:00
11:55 AM,50.0,10.9,21,30.23,10.0,West,11.5,18.4,N/A,,Clear,260,2013-11-06 18:55:00
12:55 PM,52.0,10.9,19,30.22,10.0,NW,12.7,26.5,N/A,,Clear,310,2013-11-06 19:55:00
1:55 PM,52.0,12.0,20,30.23,10.0,WNW,6.9,19.6,N/A,,Clear,290,2013-11-06 20:55:00
2:55 PM,52.0,12.0,20,30.26,10.0,North,5.8,-,N/A,,Clear,360,2013-11-06 21:55:00
3:55 PM,48.9,12.0,23,30.29,10.0,Variable,5.8,-,N/A,,Clear,0,2013-11-06 22:55:00
4:55 PM,37.0,14.0,39,30.37,10.0,SE,6.9,-,N/A,,Clear,130,2013-11-06 23:55:00
5:55 PM,28.9,12.9,51,30.43,10.0,SSE,3.5,-,N/A,,Clear,160,2013-11-07 00:55:00
6:55 PM,24.1,12.0,60,30.47,10.0,Variable,5.8,-,N/A,,Clear,0,2013-11-07 01:55:00
7:55 PM,23.0,12.0,63,30.44,10.0,SSE,8.1,-,N/A,,Clear,160,2013-11-07 02:55:00
8:55 PM,19.9,12.0,71,30.44,10.0,Variable,4.6,-,N/A,,Clear,0,2013-11-07 03:55:00
9:55 PM,18.0,12.0,78,30.41,10.0,NNW,4.6,-,N/A,,Clear,340,2013-11-07 04:55:00
10:55 PM,16.0,10.9,81,30.40,10.0,Variable,5.8,-,N/A,,Clear,0,2013-11-07 05:55:00
11:55 PM,17.1,12.0,81,30.40,10.0,North,4.6,-,N/A,,Clear,360,2013-11-07 06:55:00